{"data":{"norad_id":67751,"intl_designator":"2026-027F","name":"2026-027F","alt_names":[],"object_type":"PAYLOAD","status":"ACTIVE","operator":null,"country":"PRC","launch_date":"2026-02-12","launch_site_code":"SCSLA","launch_vehicle":null,"mission":null,"orbit_class":"UNKNOWN","rcs_meters":null,"size_class":null,"mass_kg":null,"dimensions":null,"purposes":[],"wikipedia_slug":null,"has_3d_model":false,"image_url":null,"decayed_at":null,"tle_current":{"epoch":"2026-05-25T02:17:32.706816Z","epoch_age_seconds":80874,"freshness":"FRESH","line1":"1 67751U 26027F   26145.09551744  .00001791  00000+0  10805-3 0  9990","line2":"2 67751  97.5047 272.9765 0009918 185.5880 174.5241 15.11978938 15428","mean_motion":15.11978938,"eccentricity":0.0009918,"inclination_deg":97.5047,"raan_deg":272.9765,"arg_perigee_deg":185.588,"mean_anomaly_deg":174.5241,"bstar":0.00010805,"rev_number":1542,"period_min":95.239421913164,"perigee_km":523.31385946289,"apogee_km":537.01716832946,"semimajor_km":6908.3025138962,"source":"CELESTRAK","updated_at":"2026-05-25T13:38:07.231508Z"}}}